#timestamp,LO_Frequency,Hit,StdDev 
1648108815.1,286047003.2,N
1648108816.0,286047003.2,N
1648108835.8,286047003.7,N
1648108855.6,286047003.7,N
1648108875.5,286047003.9,N
1648108895.3,286047001.4,N
1648108915.2,286047000.0,N
1648108935.9,286046998.5,N
1648108955.7,286047000.7,N
1648108975.6,286046998.4,N
1648108995.4,286046999.9,N
1648109015.2,286047001.1,N
1648109035.1,286047000.7,N
1648109036.0,286047000.7,N
1648109055.8,286046999.7,N
1648109075.7,286047002.1,N
1648109095.5,286047002.7,N
1648109115.3,286047000.1,N
1648109135.2,286047000.1,N
1648109155.0,286047002.4,N
1648109155.9,286047002.4,N
1648109175.7,286047001.6,N
1648109195.6,286047003.8,N
1648109215.4,286047001.4,N
1648109235.3,286047000.0,N
1648109255.1,286047000.7,N
1648109275.8,286046998.2,N
1648109295.7,286046999.1,N
1648109315.5,286046997.4,N
1648109335.3,286046999.1,N
1648109355.2,286046996.6,N
1648109375.0,286046999.6,N
1648109375.9,286046999.6,N
1648109395.8,286046999.3,N
1648109415.6,286046998.8,N
1648109435.4,286046999.7,N
1648109455.3,286047000.4,N
1648109475.1,286047000.6,N
1648109495.9,286046998.5,N
1648109515.7,286047001.1,N
1648109535.5,286047001.0,N
1648109555.4,286047000.9,N
1648109575.2,286046998.5,N
1648109595.1,286047000.9,N
1648109596.0,286047000.9,N
1648109615.8,286046998.1,N
1648109635.6,286047001.0,N
1648109655.5,286046996.6,N
1648109675.3,286046999.0,N
1648109695.2,286046998.4,N
1648109715.9,286046998.4,N
1648109735.7,286046998.5,N
1648109755.6,286047000.6,N
1648109775.4,286047000.4,N
1648109795.3,286047000.4,N
1648109815.1,286047000.9,N
1648109816.0,286047000.9,N
1648109835.8,286046999.9,N
1648109855.7,286047000.5,N
1648109875.5,286047000.2,N
1648109895.3,286047002.6,N
1648109915.2,286047001.8,N
1648109935.0,286047001.5,N
1648109935.9,286047001.5,N
1648109955.8,286047003.9,N
1648109975.6,286047003.3,N
1648109995.4,286047003.2,N
1648110015.3,286047003.4,N
1648110035.1,286047004.2,N
1648110055.9,286047002.9,N
1648110075.7,286047004.5,N
1648110095.5,286047002.9,N
1648110115.4,286047005.9,N
1648110135.2,286047004.2,N
1648110155.0,286047003.9,N
1648110155.9,286047003.9,N
1648110175.8,286047003.3,N
1648110195.6,286047005.8,N
1648110215.5,286047005.7,N
1648110235.3,286047005.6,N
1648110255.1,286047005.7,N
1648110275.9,286047003.3,N
1648110295.7,286047003.7,N
1648110315.6,286047003.8,N
1648110335.4,286047003.1,N
1648110355.3,286047007.3,Y
1648110375.1,286047002.3,P
1648110376.0,286047002.3,P
1648110395.8,286046999.9,N
1648110415.7,286047000.1,N
1648110435.5,286047001.6,N
1648110455.3,286047001.4,N
1648110475.2,286047001.7,N
1648110495.0,286047001.7,N
1648110495.9,286047001.7,N
1648110515.8,286047001.3,N
1648110535.6,286047004.3,Y
1648110555.4,286046999.9,P
1648110575.3,286046999.9,N
1648110595.1,286047000.3,N
1648110615.8,286047000.3,N
1648110635.7,286047000.7,N
1648110655.5,286046998.8,N
1648110675.4,286047000.6,N
1648110695.2,286047000.3,N
1648110715.0,286047002.8,Y
1648110715.9,286047002.8,P
1648110735.8,286047000.5,N
1648110755.6,286047000.0,N
1648110775.5,286047001.2,N
1648110795.3,286047000.3,N
1648110815.1,286047000.9,N
1648110835.9,286047002.3,N
1648110855.7,286047000.7,N
1648110875.5,286047001.2,N
1648110895.4,286047000.2,N
1648110915.2,286047000.6,N
1648110935.1,286047001.9,N
1648110936.0,286047001.9,N
1648110955.8,286047001.6,N
1648110975.6,286047003.7,Y
1648110995.5,286047001.7,P
1648111015.3,286046999.8,N
1648111035.2,286047001.9,N
1648111055.9,286047002.1,N
1648111075.7,286047003.9,Y
1648111095.6,286047000.4,P
1648111115.4,286047000.8,N
1648111135.3,286047001.2,P
1648111155.1,286046998.1,Y
1648111156.0,286046998.1,P
1648111175.8,286046999.1,N
1648111195.7,286046998.1,N
1648111215.5,286046998.6,N
1648111235.3,286046999.6,N
1648111255.2,286046998.1,N
1648111275.0,286046999.1,N
1648111275.9,286046999.1,N
1648111295.8,286046998.2,N
1648111315.6,286046999.3,N
1648111335.5,286046997.4,Y
1648111355.3,286046999.5,P
1648111375.1,286046998.7,P
1648111395.9,286047000.7,N
1648111415.7,286047001.0,N
1648111435.6,286046999.2,N
1648111455.4,286046998.9,N
1648111475.2,286047000.8,N
1648111495.1,286047000.6,N
1648111496.0,286047000.6,N
1648111515.8,286047001.2,N
1648111535.6,286047000.5,N
1648111555.4,286047000.7,N
1648111575.2,286046999.9,N
1648111595.1,286047000.5,N
1648111596.0,286047000.5,N
1648111615.8,286047000.1,N
1648111635.7,286047000.8,N
1648111655.5,286047000.8,N
1648111675.3,286047001.1,N
1648111695.2,286047002.8,Y
1648111715.0,286047002.8,P
1648111715.9,286047002.8,N
1648111735.7,286047000.0,N
1648111755.6,286047002.4,N
1648111775.4,286047002.0,N
1648111795.3,286047000.1,N
1648111815.1,286047001.9,N
1648111816.0,286047001.9,N
1648111835.8,286047001.4,N
1648111855.4,286047001.6,N
1648111875.2,286047001.8,N
1648111895.1,286047002.1,N
1648111896.0,286047002.1,N
1648111915.8,286046999.8,N
1648111935.7,286047001.5,N
1648111955.5,286047004.4,Y
1648111975.4,286047000.4,P
1648111995.2,286047001.2,N
1648112015.0,286046998.6,P
1648112015.9,286046998.6,N
1648112035.8,286046998.1,N
1648112055.6,286046999.8,N
1648112075.5,286047001.8,N
1648112095.3,286047004.2,Y
1648112115.1,286047002.1,P
1648112165.9,286047002.7,E
1648112175.8,286046998.3,N
1648112195.7,286046997.0,P
1648112215.5,286046997.9,P
1648112235.3,286046997.2,Y
1648112255.2,286046998.2,P
1648112275.0,286047001.1,P
1648112275.9,286047001.1,N
1648112295.8,286046999.4,N
1648112315.6,286046998.3,N
1648112335.4,286047000.9,N
1648112355.3,286047000.7,N
1648112375.1,286046998.8,N
1648112395.8,286047004.4,Y
